Weather History for Joliet, IL

Change the Weather History Date:

Friday, May 10, 2013

  Actual Average (KLOT) Record (KLOT)
Temperature  
Mean Temperature 51 °F 59 °F  
Max Temperature 55 °F 69 °F 91 °F (2011)
Min Temperature 45 °F 48 °F 35 °F (1997)
Degree Days  
Heating Degree Days 14 7  
Month to date heating degree days 85  
Since 1 July heating degree days 6079  
Cooling Degree Days 0 1  
Month to date cooling degree days 8  
Year to date cooling degree days 13  
Growing Degree Days 1 (Base 50)    
Moisture  
Dew Point 46 °F    
Average Humidity 89    
Maximum Humidity 97    
Minimum Humidity 77    
Precipitation  
Precipitation 0.00 in 0.13 in 0.54 in (2003)
Month to date precipitation 1.40  
Year to date precipitation 11.84  
Sea Level Pressure  
Sea Level Pressure 29.90 in    
Wind  
Wind Speed 6 mph (NNE)    
Max Wind Speed 12 mph    
Max Gust Speed 18 mph    
Visibility 7 miles    
Events Rain    
T = Trace of Precipitation, MM = Missing Value Source: NWS Daily Summary

Daily Weather History Graph

Daily Weather History Graph

Search for Another Location

Airport:

Trip Planner

Search our weather history database for the weather conditions in past years. The results will help you decide how hot, cold, wet, or windy it might be!

Date:

Astronomy

May. 10, 2013 Rise Set
Actual Time 5:38 AM CDT 8:00 PM CDT
Civil Twilight 5:07 AM CDT 8:31 PM CDT
Nautical Twilight 4:28 AM CDT 9:10 PM CDT
Astronomical Twilight 3:46 AM CDT 9:53 PM CDT
Moon 6:02 AM CDT (5/10) 8:49 PM CDT (5/10)
Length of Visible Light 15h 24m
Length of Day
14h 21m
New Moon, 0% of the Moon is Illuminated
May 10
New Moon
May 17
First Quarter
May 24
Full
May 31
Last Quarter
Jun 8
New

Hourly Weather History & Observations

Time (CDT) Temp. Windchill Dew Point Humidity Pressure Visibility Wind Dir Wind Speed Gust Speed Precip Events Conditions
12:15 AM 57.6 °F - 56.1 °F 95% 29.83 in 1.5 mi NNE 9.2 mph - N/A   Overcast
12:35 AM 56.3 °F - 55.0 °F 96% 29.82 in 1.5 mi Calm Calm - N/A   Overcast
12:55 AM 55.6 °F - 54.5 °F 96% 29.81 in 1.5 mi NNE 5.8 mph - N/A   Overcast
1:15 AM 54.9 °F - 53.8 °F 96% 29.81 in 1.2 mi NE 5.8 mph - N/A   Overcast
1:35 AM 54.1 °F - 53.1 °F 96% 29.80 in 1.2 mi NNE 4.6 mph - N/A   Overcast
1:55 AM 53.8 °F - 52.7 °F 96% 29.79 in 1.5 mi NE 3.5 mph - N/A   Overcast
2:15 AM 53.4 °F - 52.3 °F 96% 29.79 in 1.2 mi NNE 3.5 mph - N/A   Overcast
2:35 AM 53.2 °F - 52.3 °F 97% 29.79 in 1.2 mi NNE 3.5 mph - N/A   Overcast
2:55 AM 52.9 °F - 52.0 °F 97% 29.79 in 1.2 mi North 3.5 mph - N/A   Overcast
3:15 AM 52.3 °F - 51.4 °F 97% 29.79 in 1.2 mi North 3.5 mph - N/A   Overcast
3:35 AM 52.0 °F - 50.9 °F 96% 29.79 in 1.5 mi North 3.5 mph - N/A   Overcast
3:55 AM 51.8 °F - 50.5 °F 95% 29.79 in 1.8 mi Calm Calm - N/A   Overcast
4:15 AM 51.8 °F - 50.5 °F 95% 29.79 in 2.0 mi NNE 3.5 mph - N/A   Overcast
4:35 AM 51.6 °F - 50.5 °F 96% 29.79 in 1.8 mi North 4.6 mph - N/A   Overcast
4:55 AM 51.1 °F - 50.2 °F 97% 29.79 in 1.5 mi NNE 4.6 mph - N/A   Overcast
5:15 AM 50.2 °F - 49.1 °F 96% 29.80 in 2.0 mi North 6.9 mph - N/A   Overcast
5:35 AM 49.6 °F - 48.6 °F 96% 29.82 in 1.8 mi NNW 8.1 mph - N/A   Overcast
5:55 AM 49.1 °F - 48.2 °F 97% 29.82 in 2.0 mi North 5.8 mph - N/A Rain Light Rain
6:15 AM 49.1 °F - 48.2 °F 97% 29.83 in 2.5 mi NNW 6.9 mph - N/A   Overcast
6:35 AM 48.4 °F - 47.3 °F 96% 29.84 in 4.0 mi NNW 8.1 mph - N/A   Overcast
6:55 AM 47.5 °F - 46.4 °F 96% 29.86 in 4.0 mi North 10.4 mph - N/A   Overcast
7:15 AM 46.4 °F 41.5 °F 45.0 °F 95% 29.86 in 7.0 mi North 10.4 mph - N/A   Overcast
7:35 AM 46.4 °F 42.9 °F 45.1 °F 95% 29.86 in 7.0 mi North 6.9 mph - N/A   Overcast
7:55 AM 45.9 °F 41.7 °F 44.6 °F 95% 29.87 in 5.0 mi North 8.1 mph - N/A   Overcast
8:15 AM 46.8 °F - 44.8 °F 93% 29.88 in 10.0 mi North 8.1 mph - N/A   Overcast
8:35 AM 47.3 °F - 45.5 °F 93% 29.88 in 10.0 mi North 5.8 mph - N/A   Overcast
8:55 AM 47.3 °F - 44.8 °F 91% 29.89 in 10.0 mi North 5.8 mph - N/A   Overcast
9:15 AM 47.7 °F - 45.7 °F 93% 29.90 in 7.0 mi North 4.6 mph - N/A   Drizzle
9:35 AM 48.0 °F - 45.7 °F 92% 29.90 in 10.0 mi North 6.9 mph - N/A   Overcast
10:15 AM 50.0 °F - 47.1 °F 90% 29.89 in 10.0 mi NNE 10.4 mph 17.3 mph N/A   Overcast
10:35 AM 50.5 °F - 46.6 °F 86% 29.90 in 10.0 mi NNE 11.5 mph 17.3 mph N/A   Overcast
10:55 AM 50.5 °F - 46.4 °F 86% 29.91 in 10.0 mi NE 6.9 mph - N/A   Overcast
11:15 AM 50.5 °F - 46.9 °F 87% 29.91 in 10.0 mi Calm Calm - N/A   Overcast
11:35 AM 50.7 °F - 46.9 °F 87% 29.91 in 10.0 mi North 3.5 mph - N/A   Overcast
11:55 AM 50.9 °F - 46.4 °F 85% 29.92 in 10.0 mi North 10.4 mph - N/A   Overcast
12:15 PM 50.9 °F - 46.2 °F 84% 29.92 in 10.0 mi North 8.1 mph - N/A   Overcast
12:35 PM 50.4 °F - 45.9 °F 85% 29.92 in 10.0 mi North 8.1 mph - N/A   Overcast
12:55 PM 50.0 °F - 45.5 °F 85% 29.94 in 10.0 mi North 9.2 mph - N/A   Overcast
1:15 PM 50.0 °F - 46.4 °F 87% 29.94 in 10.0 mi NNE 8.1 mph - N/A   Overcast
1:35 PM 49.3 °F - 45.1 °F 86% 29.95 in 10.0 mi NNE 9.2 mph - N/A   Overcast
1:55 PM 49.1 °F - 44.8 °F 85% 29.94 in 10.0 mi North 10.4 mph - N/A   Overcast
2:15 PM 48.6 °F - 44.6 °F 86% 29.95 in 10.0 mi NNE 9.2 mph - N/A   Overcast
2:35 PM 48.6 °F - 44.2 °F 85% 29.94 in 10.0 mi North 9.2 mph - N/A   Overcast
2:55 PM 48.6 °F - 43.7 °F 83% 29.94 in 10.0 mi NNE 11.5 mph - N/A   Overcast
3:15 PM 48.6 °F - 43.5 °F 83% 29.94 in 10.0 mi NNE 8.1 mph - N/A   Overcast
3:35 PM 48.6 °F - 43.0 °F 81% 29.94 in 10.0 mi NNE 10.4 mph - N/A   Overcast
3:55 PM 48.7 °F - 43.2 °F 81% 29.94 in 10.0 mi NNE 11.5 mph - N/A   Overcast
4:15 PM 49.1 °F - 42.8 °F 79% 29.94 in 10.0 mi North 6.9 mph - N/A   Overcast
4:35 PM 49.1 °F - 42.3 °F 77% 29.95 in 10.0 mi NNE 10.4 mph 16.1 mph N/A   Overcast
4:55 PM 48.6 °F - 42.1 °F 78% 29.95 in 10.0 mi North 11.5 mph 18.4 mph N/A   Overcast
5:15 PM 48.0 °F - 41.9 °F 79% 29.96 in 10.0 mi NNE 8.1 mph - N/A   Overcast
5:35 PM 47.7 °F - 42.6 °F 83% 29.95 in 10.0 mi North 6.9 mph - N/A   Overcast
5:55 PM 47.7 °F - 42.8 °F 83% 29.95 in 10.0 mi North 10.4 mph - N/A   Overcast
6:15 PM 48.0 °F - 42.8 °F 82% 29.95 in 10.0 mi NNE 8.1 mph - N/A   Overcast
6:35 PM 47.8 °F - 42.3 °F 81% 29.97 in 10.0 mi North 3.5 mph - N/A   Overcast
6:55 PM 47.7 °F - 42.3 °F 82% 29.97 in 10.0 mi North 9.2 mph - N/A   Overcast
7:15 PM 47.7 °F - 42.6 °F 83% 29.97 in 10.0 mi NNE 8.1 mph - N/A   Overcast
7:35 PM 47.3 °F - 42.6 °F 84% 29.98 in 10.0 mi NNE 8.1 mph - N/A   Overcast
7:55 PM 47.1 °F - 42.4 °F 84% 29.98 in 10.0 mi NE 8.1 mph - N/A   Overcast
8:15 PM 46.9 °F - 42.6 °F 85% 29.99 in 10.0 mi NNE 6.9 mph - N/A   Overcast
8:35 PM 46.8 °F - 43.0 °F 87% 29.99 in 10.0 mi North 3.5 mph - N/A   Overcast
8:55 PM 47.3 °F - 42.8 °F 84% 29.99 in 10.0 mi North 5.8 mph - N/A   Overcast
9:15 PM 47.3 °F - 43.2 °F 86% 29.99 in 10.0 mi NNE 5.8 mph - N/A   Overcast
9:35 PM 46.6 °F - 43.2 °F 88% 30.00 in 10.0 mi NE 5.8 mph - N/A   Overcast
9:55 PM 46.6 °F - 43.3 °F 88% 29.99 in 10.0 mi Calm Calm - N/A   Overcast
10:15 PM 46.6 °F - 43.7 °F 90% 29.99 in 7.0 mi NNE 3.5 mph - N/A   Overcast
10:35 PM 46.6 °F - 43.7 °F 90% 29.99 in 7.0 mi Calm Calm - N/A   Overcast
10:55 PM 46.4 °F - 43.7 °F 90% 29.99 in 7.0 mi Calm Calm - N/A   Overcast
11:15 PM 46.4 °F - 43.7 °F 90% 29.99 in 7.0 mi Calm Calm - N/A   Overcast
11:35 PM 46.4 °F 45.2 °F 44.6 °F 93% 29.99 in 7.0 mi NE 3.5 mph - N/A   Overcast
11:55 PM 46.4 °F - 43.7 °F 90% 29.98 in 7.0 mi Calm Calm - N/A   Overcast